Theta_e
340 342 342 343 345 345 346 346 345 344 344 345 346 346 347 348 350 351 351 351 351 352 352 353 354 354 354 354 353 353 353 353 353 353 352 352 352 352 352 351 352 353 354 354 354 354 353 353 354 354 354 353 353 351 346 343 341 340 339 338 339 337 336
340 341 341 342 344 345 346 346 345 344 344 345 346 346 347 348 349 351 351 351 351 351 352 353 353 354 354 354 354 353 354 353 353 353 353 353 352 352 351 351 352 353 354 354 354 354 353 353 354 354 354 353 352 350 346 344 343 342 340 337 336 336 337
340 341 341 341 344 345 346 346 345 345 344 345 346 346 347 347 349 351 351 351 351 351 352 352 353 354 354 354 354 354 354 354 353 353 353 353 353 352 352 351 352 353 354 354 354 353 353 354 354 353 353 353 352 350 348 346 345 344 342 339 336 335 336
340 340 341 341 343 344 345 346 346 345 345 345 346 346 347 348 348 350 351 352 352 351 352 352 353 354 354 354 354 354 354 354 354 353 353 353 353 352 352 352 352 353 353 353 353 353 353 354 354 354 353 353 352 350 349 347 346 346 344 342 340 337 336
342 341 341 341 342 343 344 345 345 345 345 345 346 346 347 348 348 349 351 352 352 352 352 352 353 353 354 354 354 354 354 354 354 354 353 353 353 353 353 352 353 353 353 353 353 353 354 354 354 354 353 352 351 350 350 348 347 346 346 345 343 340 338
342 342 342 341 341 342 343 344 344 345 345 345 346 346 347 348 348 349 351 352 353 352 352 353 353 353 354 354 354 355 355 355 354 354 354 353 353 353 353 353 353 354 353 353 353 353 353 354 354 353 353 353 352 351 350 349 347 346 346 346 344 343 340
341 342 342 341 341 341 342 342 342 343 345 345 345 346 348 348 349 349 351 352 353 353 353 353 354 354 354 354 354 355 355 355 355 354 354 354 353 353 353 353 353 354 354 354 353 354 354 354 354 353 353 353 352 351 350 349 347 346 346 346 345 343 340
342 343 341 342 342 341 342 342 342 342 344 345 345 346 347 348 349 349 350 352 353 354 354 354 354 355 355 355 354 355 355 355 355 355 355 355 354 354 353 353 353 353 354 354 354 354 354 353 353 353 353 353 352 351 350 349 348 346 345 345 344 342 339
342 343 342 342 341 341 342 342 342 342 342 344 345 345 347 348 348 349 350 351 353 354 355 354 355 355 356 356 355 355 355 355 355 355 355 355 355 355 354 354 353 354 354 354 354 354 353 353 353 353 352 352 351 351 350 350 349 347 345 344 343 342 340
342 343 343 343 341 342 343 342 344 345 344 345 344 344 347 348 348 349 350 351 352 354 355 355 355 355 356 356 356 356 355 355 355 355 356 356 355 355 355 354 354 354 354 354 354 354 353 353 353 352 352 351 351 351 350 350 349 348 346 344 343 343 341
344 344 344 344 342 343 344 344 346 347 347 346 343 344 346 347 348 349 349 351 352 353 355 355 356 356 356 357 357 357 356 356 356 356 356 356 356 356 355 355 355 354 355 355 354 354 354 353 352 352 351 351 350 350 350 350 349 348 347 345 344 344 343
344 346 346 345 345 344 344 346 347 348 349 346 343 344 346 347 349 348 349 350 351 352 354 355 356 356 356 357 357 357 358 357 356 356 356 356 356 356 356 356 356 355 355 355 354 354 354 353 352 352 351 351 351 350 350 350 349 348 348 347 345 345 343
344 346 347 346 345 344 346 347 348 349 349 347 344 344 346 347 348 349 349 350 351 353 354 354 356 356 356 357 357 357 358 358 358 357 357 357 356 357 357 356 356 356 355 355 355 355 354 353 352 352 351 351 351 350 350 350 349 349 348 347 345 344 343
345 345 345 346 345 346 348 347 348 349 349 347 345 345 346 348 348 349 350 350 351 352 353 355 356 356 357 357 357 358 358 358 358 358 358 358 357 357 357 357 357 356 356 356 355 355 354 354 353 352 352 351 351 350 350 349 349 349 348 347 345 343 342
343 343 343 345 345 346 347 347 348 349 349 349 346 345 347 347 349 350 350 351 352 352 353 355 356 356 357 357 357 358 358 358 358 358 358 359 358 358 358 358 357 357 356 356 356 355 354 354 354 353 352 352 351 351 350 350 349 349 348 347 345 343 342
341 341 342 344 344 346 347 347 348 348 349 351 349 347 347 348 349 350 350 352 352 353 355 355 356 357 357 358 358 358 358 358 359 359 359 359 359 359 358 358 358 358 357 357 356 355 355 354 354 353 353 352 351 351 350 350 349 349 348 347 345 344 343
343 341 343 344 344 346 347 347 348 349 350 352 350 348 347 349 350 350 351 352 353 354 355 356 357 358 358 358 359 358 359 359 359 359 360 359 359 359 359 359 358 358 358 357 356 356 355 354 354 354 353 353 352 351 350 350 349 349 348 347 346 345 344
350 344 343 345 345 346 348 347 348 349 349 350 348 346 347 349 350 351 351 352 353 355 356 357 357 358 359 359 359 359 360 359 359 360 360 360 360 359 359 359 358 358 358 357 357 356 355 355 354 354 354 353 352 352 351 350 350 349 348 347 346 345 345
351 346 344 345 346 346 345 344 344 347 347 346 345 346 348 350 350 351 352 352 353 355 356 357 358 358 359 360 359 360 360 359 360 360 360 360 360 360 360 359 359 359 358 357 357 356 356 355 355 355 354 354 353 353 352 351 350 349 349 347 347 346 345
351 348 344 342 344 344 344 344 343 344 344 344 344 346 347 349 351 351 352 353 353 355 356 357 359 359 359 360 360 361 361 360 361 360 360 361 360 360 360 359 359 359 358 358 357 356 356 356 355 355 354 354 353 353 352 352 351 350 349 348 347 347 346
355 352 347 344 344 345 347 349 347 346 344 342 344 346 347 348 351 351 352 353 354 354 356 357 359 359 360 360 361 361 361 361 361 361 361 361 360 360 360 359 359 359 358 358 357 357 356 355 355 355 355 354 354 353 353 352 351 350 349 348 348 348 347
355 353 350 348 348 351 354 351 345 344 344 342 343 346 347 347 350 351 352 353 353 354 356 357 358 359 360 360 361 361 361 361 361 361 361 361 360 360 360 360 359 359 358 358 357 357 356 356 356 356 355 354 354 353 353 353 352 351 350 349 349 348 347
347 349 351 350 348 347 344 341 340 339 341 344 344 345 347 347 349 350 351 352 353 354 355 356 357 358 359 360 361 361 361 361 361 361 361 361 361 360 360 360 359 359 358 358 357 357 356 356 356 355 355 355 354 354 354 353 352 352 351 351 350 349 348
345 346 351 351 354 355 344 337 340 341 341 345 345 345 347 347 348 350 351 353 354 353 354 355 356 357 358 359 360 361 361 362 361 362 361 361 361 361 360 360 360 359 359 358 357 357 356 356 356 355 356 355 354 354 354 353 353 352 352 352 351 350 348
367 370 366 349 345 354 350 340 340 342 343 344 345 346 347 347 348 351 351 353 353 353 354 354 355 356 357 358 359 360 361 361 362 361 361 361 361 360 361 360 360 359 359 358 358 357 356 356 356 355 355 355 355 355 354 353 353 352 352 352 351 351 349
368 376 382 363 345 342 343 341 345 347 345 344 345 346 347 347 348 350 351 353 354 353 354 354 354 355 356 357 358 359 360 361 361 362 361 361 361 360 360 360 360 360 359 358 358 358 357 356 356 356 355 355 355 355 354 354 353 352 352 352 352 351 350
355 356 362 362 354 348 344 342 346 348 346 345 346 346 347 348 349 349 350 352 354 354 355 354 354 355 355 356 357 358 360 360 361 361 361 361 361 361 360 360 360 360 359 359 358 358 357 357 356 356 356 355 355 355 354 354 354 353 352 352 351 351 350
361 360 355 354 354 351 348 347 348 348 349 350 349 349 349 349 349 349 349 350 352 354 355 355 355 355 355 356 357 357 359 360 360 361 361 361 361 360 360 360 360 360 359 359 358 358 357 357 356 356 356 356 355 355 355 354 354 354 353 351 351 351 350
357 360 356 354 354 352 352 357 354 348 349 353 353 354 354 350 349 350 349 349 351 352 354 354 355 355 355 355 356 357 358 359 360 361 361 361 361 360 360 360 360 360 360 359 359 358 357 356 356 356 354 354 354 354 355 354 354 354 353 352 351 350 349
350 350 349 350 351 349 348 352 350 345 346 351 354 356 356 355 353 352 350 351 351 351 352 353 354 355 356 355 355 356 357 358 360 360 361 361 361 360 360 360 359 359 360 359 359 358 357 356 355 354 352 351 351 351 352 352 352 352 352 351 350 349 348
345 347 348 348 347 347 346 346 345 345 346 348 351 354 356 357 356 355 354 354 354 354 354 354 354 355 355 355 355 355 355 356 358 359 361 361 361 360 360 359 359 359 359 359 358 357 356 354 353 352 350 349 348 348 349 350 351 351 350 350 349 348 347
342 344 346 345 345 346 345 344 345 345 345 346 348 350 353 356 356 356 357 357 358 358 357 355 356 355 354 354 355 354 354 355 356 358 359 361 361 361 360 360 359 359 359 358 358 356 354 352 351 350 348 347 345 345 346 348 350 350 349 348 347 346 346
344 343 344 344 344 343 342 345 349 349 346 346 347 347 351 355 356 357 358 359 359 360 359 358 357 356 356 355 354 353 354 354 354 356 358 360 361 361 361 360 360 359 358 357 356 354 352 349 348 346 345 344 343 343 343 345 347 348 347 346 345 343 343
344 343 342 341 341 341 340 342 347 348 346 345 345 346 348 351 354 356 358 359 360 361 361 361 359 358 357 356 354 353 353 353 354 356 357 359 361 361 361 361 359 358 357 357 356 353 348 346 345 344 343 342 341 340 339 340 343 345 344 343 342 341 340
345 343 341 340 341 342 341 340 341 342 341 341 342 343 344 346 348 351 354 357 359 361 363 362 362 361 360 358 357 355 353 353 355 355 357 359 360 360 360 360 359 358 357 356 356 353 350 349 347 345 344 343 341 339 338 338 340 343 343 341 341 340 339
346 345 343 342 343 343 342 342 341 340 339 339 339 340 341 343 344 346 349 353 356 359 361 363 363 362 362 362 361 359 358 358 357 358 358 358 357 356 355 354 355 355 354 353 353 353 355 354 349 345 345 344 340 339 341 343 344 343 342 341 340 340 339
345 346 346 345 345 345 344 344 344 343 342 341 338 336 339 342 343 344 345 348 351 354 356 359 359 356 354 354 353 353 354 354 355 356 355 353 352 350 344 340 341 345 348 350 350 350 352 351 346 344 347 347 342 340 342 345 345 342 341 341 340 339 338
342 343 344 344 345 346 346 345 345 344 344 342 339 337 339 341 343 343 343 344 347 350 352 354 353 348 344 343 343 343 343 342 342 344 344 345 347 344 338 334 333 334 338 344 347 347 346 346 345 345 347 347 346 344 343 342 342 341 340 339 338 337 337
Wind_Speed
18 17 17 16 16 17 18 18 19 21 26 30 33 36 38 38 39 39 40 42 43 43 44 44 43 44 45 46 46 45 44 44 42 40 39 38 37 36 35 36 36 36 36 36 37 37 35 33 32 30 30 30 30 29 28 28 27 26 25 26 26 26 25
16 16 17 16 16 18 19 19 19 22 26 29 33 36 37 38 39 40 40 41 43 44 44 45 45 45 46 47 46 45 44 44 42 40 39 38 37 36 36 37 37 37 37 38 38 37 35 34 33 32 31 31 31 30 30 29 29 28 27 27 27 27 26
15 16 17 17 18 18 19 18 19 23 27 29 31 34 36 39 41 43 42 42 43 43 43 45 46 46 46 46 45 44 45 44 42 41 40 39 38 37 36 36 37 37 38 38 38 37 36 35 34 34 32 32 32 31 31 31 31 30 29 28 28 28 28
17 19 19 19 19 18 18 18 19 23 29 32 34 36 39 43 44 44 44 44 44 43 43 45 46 46 46 45 44 44 44 44 43 42 42 41 39 37 36 36 37 37 37 38 38 37 36 35 35 35 34 34 33 33 33 33 33 33 31 30 30 30 29
18 19 18 17 18 17 17 18 18 22 28 33 36 38 41 43 42 41 42 43 44 45 47 47 47 46 46 46 45 44 45 45 44 43 42 41 39 38 37 37 37 37 37 38 38 38 37 36 36 36 36 36 35 34 34 35 35 35 34 33 32 32 32
16 17 17 16 17 17 18 19 20 25 31 33 36 38 39 38 38 40 41 41 42 44 45 45 45 45 45 45 45 44 43 44 44 43 43 41 40 38 38 39 38 38 38 38 38 38 38 37 37 38 38 38 37 36 36 36 36 36 36 35 35 35 34
16 17 18 17 17 17 19 19 20 27 33 35 36 37 35 35 37 39 40 40 42 42 42 43 44 45 44 44 44 43 42 42 42 42 42 41 40 39 40 40 39 39 38 38 38 38 39 38 38 38 39 39 39 38 38 37 37 37 37 37 36 36 35
18 18 18 17 18 17 19 19 19 24 30 31 31 30 31 33 35 37 38 40 41 40 42 44 45 45 44 43 43 43 43 42 41 41 41 41 40 40 40 40 40 40 38 38 38 39 39 39 39 39 39 40 40 40 39 38 38 38 38 38 38 37 36
18 18 17 17 18 17 17 18 18 20 23 26 27 28 31 33 34 36 39 40 40 40 43 45 44 44 44 43 43 44 43 41 41 41 41 41 41 41 41 41 41 40 39 39 39 39 40 40 40 40 40 40 41 40 40 39 39 38 39 39 39 38 37
15 16 16 17 17 16 16 16 15 15 16 19 23 27 30 32 34 36 38 39 39 42 44 44 42 42 42 43 43 42 42 41 41 41 41 42 42 42 42 42 41 40 40 40 39 39 40 40 39 39 40 41 41 41 41 40 40 39 40 40 40 39 39
12 13 14 15 15 15 15 15 14 14 13 15 21 26 29 32 34 35 36 39 41 42 42 41 40 40 42 42 41 40 41 41 41 41 42 43 43 42 43 42 41 40 40 40 39 39 39 39 39 39 40 42 42 41 41 40 40 40 40 40 40 40 40
10 11 11 13 14 15 15 15 14 15 14 15 21 26 28 31 33 34 36 39 41 41 40 40 40 40 41 41 40 40 40 40 41 42 43 43 43 42 41 41 41 40 40 40 40 39 38 38 39 40 41 43 42 41 41 40 41 41 40 40 40 40 40
11 11 11 11 13 14 14 14 15 16 16 17 21 27 29 31 33 35 36 38 40 39 39 39 40 40 41 41 40 40 41 42 43 43 43 43 42 41 40 40 40 40 40 40 39 39 38 39 39 40 41 42 41 40 40 40 40 40 40 40 40 40 39
12 12 12 12 13 14 14 14 15 16 16 17 20 25 28 30 33 35 36 37 38 38 38 39 40 40 40 41 40 41 42 43 43 42 42 42 41 40 40 39 40 40 40 39 39 39 39 39 39 39 39 40 40 40 39 39 39 40 40 40 40 39 38
12 13 14 16 16 15 15 15 15 15 16 16 17 22 26 28 31 33 33 34 36 38 40 41 40 40 40 40 41 43 43 42 41 40 40 40 40 40 40 40 40 39 38 38 39 39 39 38 38 38 37 38 38 38 38 39 40 41 42 41 40 38 37
11 13 14 15 16 15 16 16 16 15 16 16 16 19 23 26 28 31 33 34 36 38 40 40 40 40 40 41 43 44 42 40 40 39 39 39 40 40 40 39 39 38 38 38 39 38 37 37 37 37 38 38 37 37 38 39 41 42 43 42 40 38 37
11 12 12 13 14 14 15 15 14 13 14 15 17 20 23 26 29 32 33 33 36 38 39 39 40 40 41 43 44 42 40 40 40 39 39 40 40 40 40 39 38 37 37 37 37 37 36 36 36 37 38 38 37 37 39 41 42 42 42 42 40 38 37
11 10 10 11 12 13 14 16 16 16 16 16 17 21 26 28 29 30 31 33 36 38 38 38 39 39 41 41 40 38 39 40 40 40 40 40 40 40 39 38 37 37 37 36 37 36 36 36 37 38 39 38 38 38 40 42 42 41 41 40 40 39 37
11 11 11 11 12 12 14 15 15 17 18 18 19 25 31 32 30 31 34 38 38 36 36 37 38 39 39 38 36 37 38 39 39 39 40 41 41 39 38 37 38 38 37 37 36 36 36 37 38 38 38 38 38 39 41 41 40 39 39 38 38 39 38
10 11 11 12 13 13 14 14 14 15 17 21 26 31 34 34 34 35 37 36 34 34 35 37 37 37 37 36 37 38 38 38 39 40 40 40 40 38 38 38 39 39 38 36 35 35 37 38 39 39 39 38 38 39 39 39 38 37 37 36 36 37 38
9 9 10 11 12 12 11 11 11 11 14 22 28 30 31 32 32 31 30 29 30 33 36 36 36 36 36 36 37 38 38 38 39 39 39 38 38 38 38 39 39 38 37 35 35 38 39 39 39 40 39 39 39 38 37 37 36 35 35 36 36 36 38
8 8 9 9 10 12 11 11 13 15 18 22 25 26 28 30 31 29 28 30 33 34 36 35 34 35 35 35 36 37 38 39 39 38 38 37 37 38 39 39 39 38 37 36 37 38 38 38 39 39 39 38 38 37 36 35 33 33 34 34 34 35 37
7 8 8 8 8 10 9 10 14 17 19 20 21 24 27 29 31 30 29 30 32 33 34 33 33 34 35 36 37 39 40 40 40 38 37 36 37 38 39 39 38 38 38 38 38 37 38 38 38 38 38 38 38 37 36 33 31 32 32 32 33 35 36
4 5 6 7 8 8 9 11 13 16 20 22 23 28 30 28 27 27 26 27 30 31 31 31 32 34 35 37 39 41 41 42 41 39 38 37 38 39 39 38 39 39 40 40 39 38 39 38 37 37 38 38 38 38 35 32 32 32 32 32 33 34 36
7 4 3 4 5 6 8 12 16 17 18 18 21 27 28 26 26 25 23 24 27 27 27 29 33 35 37 40 42 43 42 42 42 40 39 39 40 40 39 39 39 39 39 39 39 38 37 36 35 35 36 36 36 37 34 33 33 33 32 31 32 33 35
8 8 7 5 4 5 6 6 10 13 15 18 24 28 28 27 26 25 23 24 25 24 27 32 36 38 40 42 42 41 41 40 41 41 41 41 41 41 41 40 38 37 37 37 37 36 35 36 36 35 34 35 35 35 34 34 35 33 31 31 31 31 33
6 8 9 10 11 11 7 3 2 5 9 14 18 21 26 27 25 23 25 24 22 24 32 37 39 40 41 41 38 37 38 39 40 43 43 43 42 40 40 39 37 36 37 37 35 34 34 35 35 34 33 34 34 33 34 36 36 33 32 31 29 29 31
10 11 12 14 18 18 11 6 5 4 4 5 4 8 18 23 21 21 22 21 23 33 40 40 39 39 38 35 32 32 34 35 37 39 40 40 40 38 38 39 38 37 37 35 34 34 34 34 33 32 31 32 33 34 34 35 35 33 32 30 28 27 30
10 11 11 12 16 18 13 8 8 10 9 8 4 2 12 18 19 18 17 19 26 33 32 30 30 30 29 28 28 30 32 34 36 36 37 37 37 37 36 36 36 36 36 35 34 33 32 32 31 30 28 28 29 31 33 33 32 31 30 29 26 26 29
10 9 10 10 12 16 15 10 8 11 14 14 10 4 5 13 17 15 13 17 21 19 16 18 21 22 23 26 29 30 32 34 36 37 36 36 36 36 36 35 35 35 34 34 33 31 29 28 29 28 27 26 26 27 29 29 29 27 27 26 25 26 28
9 8 9 9 12 16 15 12 11 12 14 16 14 9 3 5 12 13 13 17 18 15 15 17 17 19 22 25 28 30 32 33 34 35 36 36 36 36 36 35 34 33 33 33 32 29 27 26 27 27 25 25 26 27 27 28 27 26 25 24 24 24 24
8 8 8 8 10 12 13 12 12 11 11 14 15 12 9 3 5 10 13 16 16 16 18 19 20 22 24 25 27 30 30 31 32 35 36 37 38 37 37 36 34 33 32 31 30 28 26 25 25 26 25 25 25 27 28 28 28 28 26 25 24 23 23
8 7 8 8 8 10 11 10 9 8 8 10 12 11 9 7 4 1 5 9 10 12 16 20 22 24 25 27 30 32 33 34 35 35 36 37 38 37 35 34 34 33 31 30 29 27 24 22 20 17 18 21 23 26 28 29 29 29 28 27 26 24 24
7 7 8 9 9 10 9 8 6 5 5 7 10 11 10 10 9 6 4 3 6 9 12 17 21 24 26 29 30 32 34 35 36 35 35 35 35 34 33 33 35 35 35 37 37 33 30 28 26 23 20 20 22 25 27 28 30 31 31 29 28 27 25
7 7 7 8 10 9 8 7 5 5 5 7 10 11 11 12 11 9 7 5 5 8 11 14 16 19 22 25 27 30 32 32 33 33 31 30 30 31 32 35 39 40 40 42 45 45 44 41 38 38 35 31 27 27 26 26 30 33 32 29 28 27 26
6 6 6 8 10 10 10 9 8 7 7 7 9 10 11 11 10 10 8 6 4 6 9 11 11 11 13 15 18 21 25 27 30 31 29 30 32 32 30 29 34 39 40 41 42 46 47 43 39 40 41 38 33 31 30 30 32 33 30 27 26 25 25
7 6 8 10 10 9 10 11 10 10 9 10 9 10 11 12 11 10 9 7 3 2 5 8 8 5 3 3 3 2 2 6 13 20 28 32 33 32 29 25 23 25 31 37 40 39 38 36 37 39 39 37 35 32 28 28 30 30 27 25 24 24 23
11 11 12 13 13 11 10 11 11 10 11 11 10 11 13 14 12 10 9 8 5 2 2 5 7 10 13 14 14 14 14 13 10 2 11 22 29 32 32 28 25 24 26 33 37 36 33 33 35 36 35 35 36 31 24 23 26 27 25 24 24 23 22
Wind_Direction
199 199 201 200 201 202 202 201 200 200 200 200 199 199 198 198 197 197 198 198 199 200 200 200 200 200 202 204 206 207 208 210 210 211 213 215 217 216 214 215 215 215 216 217 218 221 222 222 220 220 220 219 220 218 216 214 214 215 216 216 217 221 223
198 202 203 200 202 204 204 202 201 201 201 201 201 200 199 198 197 197 198 199 199 200 199 199 200 201 203 205 206 207 208 209 210 210 212 214 216 216 215 216 217 217 218 219 220 221 222 222 220 220 219 219 220 219 218 216 215 216 217 216 217 220 223
200 203 202 202 202 202 203 202 202 203 203 202 201 200 200 200 199 198 198 197 199 200 199 200 201 202 203 205 206 207 208 209 209 209 210 213 215 216 216 217 219 219 219 219 220 221 222 221 220 219 219 219 220 220 220 219 218 218 218 217 218 220 223
201 203 202 204 202 200 202 202 202 203 204 204 202 201 201 201 200 199 199 198 198 198 199 200 201 202 204 205 206 207 208 208 209 209 211 213 214 215 215 217 219 219 219 219 220 220 221 221 219 218 218 220 220 220 221 222 221 220 220 221 222 223 225
203 205 205 205 202 200 202 203 203 203 204 206 205 203 204 202 200 199 200 200 199 199 200 201 201 202 204 205 206 207 208 208 209 210 211 212 213 213 214 216 218 218 219 219 219 220 220 220 218 217 217 219 220 221 222 223 222 223 222 223 225 226 226
203 205 206 204 201 201 202 203 204 203 204 205 204 205 205 201 199 199 200 200 200 201 202 201 202 202 204 205 207 208 208 209 209 209 211 212 212 212 213 216 217 217 218 218 219 219 219 220 219 218 218 218 220 221 221 222 223 223 224 224 226 228 229
202 205 207 204 200 200 201 203 205 203 205 206 205 205 202 198 198 199 200 200 201 201 201 202 203 203 204 206 207 208 208 209 209 209 210 212 212 212 213 216 217 217 218 217 218 219 219 221 221 219 219 219 220 220 221 222 222 223 224 225 227 228 229
204 205 207 203 200 201 201 202 204 204 204 205 204 203 199 198 198 198 199 200 201 200 200 202 203 203 204 205 207 209 209 209 209 209 210 211 212 212 213 215 217 217 218 218 219 220 220 222 221 220 219 218 220 220 221 222 223 224 224 225 226 226 226
208 207 206 202 199 201 202 203 204 201 201 201 200 200 197 197 198 198 200 200 199 200 202 204 203 202 203 205 207 209 209 209 209 209 209 210 212 213 213 215 216 217 217 218 220 221 221 222 220 219 218 218 219 220 221 222 223 224 224 225 225 224 225
211 210 208 203 200 201 201 204 203 199 198 197 198 199 197 196 198 199 199 199 199 202 204 203 202 202 203 205 207 208 208 209 209 209 209 210 211 213 213 214 215 216 217 218 219 220 220 220 219 218 217 217 219 219 220 222 223 224 225 225 225 225 226
216 216 214 205 200 199 199 200 199 197 196 195 197 198 196 197 199 198 198 199 200 203 203 202 200 200 202 205 206 207 208 208 208 209 209 210 212 213 213 214 214 215 216 217 217 218 219 218 217 217 217 218 219 220 220 221 222 224 225 225 226 227 227
214 217 218 209 202 202 199 197 197 196 195 196 197 197 196 197 198 198 199 200 201 202 201 199 199 200 202 204 205 206 208 208 208 209 210 211 212 213 213 213 213 214 215 215 215 216 217 216 216 217 218 220 220 221 221 222 223 224 225 226 226 227 228
211 208 206 205 206 206 200 197 198 196 196 198 198 196 196 196 197 197 199 200 201 201 199 197 198 199 201 203 204 206 207 208 209 210 210 211 213 213 214 214 213 214 215 215 214 215 215 216 217 218 220 221 221 222 223 223 223 224 225 226 226 226 227
212 208 201 197 203 206 201 200 200 198 198 199 197 197 197 197 198 198 199 199 199 198 197 197 197 198 200 202 204 206 208 209 209 210 211 212 212 213 214 214 214 215 215 214 214 215 215 216 218 219 221 222 222 223 223 223 223 224 225 226 226 226 226
215 213 207 201 200 198 197 201 202 199 198 198 196 196 196 198 199 198 199 199 197 196 197 196 196 198 200 201 204 207 208 208 208 210 211 211 212 213 213 214 215 215 214 214 214 215 216 217 218 219 221 222 223 223 223 224 224 224 224 225 225 225 226
224 223 215 207 201 195 195 200 203 201 198 196 196 196 196 196 196 196 198 197 196 197 197 195 195 197 199 202 205 207 207 206 207 208 209 210 211 212 213 214 214 214 214 215 215 215 215 216 218 219 221 222 223 223 223 224 225 226 226 225 224 224 226
223 225 220 210 201 194 192 195 199 200 198 199 200 197 195 196 196 196 197 196 196 197 195 194 196 198 200 204 206 205 204 204 205 206 208 210 211 212 212 213 213 214 214 214 215 214 214 215 217 219 222 223 223 223 224 226 227 227 227 226 226 225 226
217 215 216 212 203 195 192 193 195 194 195 200 201 198 197 197 196 196 196 196 197 196 193 194 197 200 203 206 205 203 202 203 203 205 207 209 210 211 212 212 212 213 214 214 214 213 213 214 216 219 221 222 224 225 226 228 228 228 228 227 226 226 227
215 208 202 202 202 198 194 196 197 195 196 197 196 199 201 198 195 195 196 198 197 193 191 194 198 201 204 205 203 202 203 202 202 204 206 207 208 209 210 210 211 212 212 213 213 212 213 215 216 219 220 221 222 225 228 230 229 228 228 227 226 227 228
223 216 206 199 200 203 201 202 202 200 200 200 199 200 201 199 198 198 198 197 193 189 191 195 198 201 203 203 202 203 203 202 203 205 207 207 207 207 208 209 211 212 212 212 211 211 213 215 216 219 220 220 222 225 228 230 230 229 228 227 227 229 230
232 224 215 205 203 209 210 206 204 202 204 206 204 201 199 200 200 199 197 194 190 190 193 196 198 201 202 202 202 202 202 202 204 206 207 206 205 205 207 209 210 211 210 210 210 212 214 215 216 219 219 221 222 225 228 230 229 229 228 227 228 230 231
231 219 218 217 210 208 204 195 196 200 205 206 202 198 198 199 196 195 195 193 191 193 195 196 198 201 202 201 202 202 202 202 204 206 206 205 204 205 207 208 209 209 208 209 211 213 214 215 217 218 219 221 222 224 227 229 229 229 228 227 229 230 230
222 210 221 231 221 217 218 211 204 201 197 194 193 196 199 198 195 194 194 192 192 194 195 196 199 201 201 201 202 202 203 203 204 205 205 204 203 205 207 208 208 208 207 208 210 211 213 215 216 218 219 220 221 223 225 226 226 228 228 227 229 228 227
253 215 227 232 223 218 214 208 206 201 191 185 189 196 198 197 195 194 192 190 192 193 194 197 201 202 202 203 204 203 204 203 204 204 204 203 204 206 208 208 208 208 207 207 209 211 213 214 215 217 219 220 220 222 222 222 224 227 227 227 228 227 225
344 346 306 257 243 245 228 204 195 191 187 187 195 198 195 191 190 189 191 193 192 192 194 199 203 203 204 206 206 206 205 203 203 204 203 204 205 206 207 208 209 209 208 208 209 211 213 214 215 217 218 219 220 221 220 220 223 225 225 227 228 225 224
349 351 354 356 350 330 302 248 197 180 180 193 201 198 191 187 185 186 191 194 192 193 199 204 205 206 208 210 209 207 206 204 204 204 204 205 206 206 207 209 209 208 207 208 210 211 212 213 215 216 217 217 218 217 217 219 221 221 223 226 226 223 221
356 360 3 6 15 22 14 341 245 210 209 211 208 198 188 184 183 189 194 191 190 198 205 208 208 208 210 212 210 208 207 206 205 206 206 207 206 205 206 208 207 206 207 207 208 209 211 213 214 214 215 215 214 214 215 218 219 218 220 223 222 219 218
12 10 7 7 10 14 23 45 52 21 333 308 280 210 193 188 189 196 196 191 198 207 209 210 210 211 212 212 210 209 209 209 209 209 209 209 207 205 205 206 206 205 206 206 207 208 209 210 211 211 212 211 210 211 214 217 218 218 218 217 215 215 215
19 13 10 12 10 8 14 38 61 53 37 26 25 189 196 198 202 206 202 202 210 214 215 214 214 213 212 210 209 209 209 210 211 211 211 210 208 206 205 204 204 204 204 204 205 206 207 207 205 204 203 202 203 207 209 211 214 215 215 212 210 211 212
24 20 16 15 16 22 28 32 34 37 36 37 42 65 180 198 205 208 211 218 223 225 225 224 218 214 212 210 209 210 210 209 210 211 211 212 209 206 205 203 201 202 202 202 203 202 202 201 198 195 191 189 191 196 201 204 205 208 209 207 204 205 206
28 24 21 21 24 32 40 41 31 30 30 30 33 41 57 198 204 205 211 221 225 226 224 222 217 213 213 211 210 210 209 208 209 209 210 211 208 206 205 201 198 198 198 199 199 198 196 194 191 188 185 182 182 183 188 193 195 195 198 199 198 197 200
35 30 30 31 28 34 45 47 38 33 28 22 24 32 35 42 196 205 213 217 217 217 217 212 208 209 210 209 211 211 209 207 208 209 210 209 208 207 206 201 196 195 195 194 193 192 192 190 187 184 180 177 177 176 177 182 186 186 185 188 190 192 196
41 36 37 37 34 41 52 55 44 36 29 18 17 23 28 34 44 216 226 219 212 212 213 209 205 206 207 207 210 210 207 206 207 207 207 206 205 205 204 201 196 191 189 188 187 184 180 175 171 173 174 170 168 168 169 173 177 178 178 181 184 187 191
47 43 43 42 43 49 57 63 60 50 34 13 8 12 18 23 23 14 342 273 232 219 215 214 211 210 210 209 209 208 207 208 207 204 203 203 203 201 198 195 193 190 190 190 185 175 167 161 161 168 176 173 166 162 162 167 173 175 176 178 179 182 184
48 45 40 38 39 40 41 43 44 48 45 26 13 13 17 17 13 5 350 319 262 229 218 216 217 217 216 212 208 206 206 206 205 203 200 195 193 192 193 192 191 189 190 192 190 183 176 172 172 175 177 176 172 167 164 168 175 178 179 179 179 182 185
46 42 33 33 35 31 27 20 13 16 23 15 12 22 27 24 18 9 359 342 296 245 218 205 202 208 214 215 212 210 207 204 202 199 192 184 180 178 178 182 187 189 188 187 187 186 185 182 182 180 175 170 172 176 177 179 180 180 180 181 183 187 190
40 34 26 28 32 30 26 22 18 16 11 1 5 22 28 27 27 22 17 13 353 275 211 191 173 145 99 47 23 357 268 224 207 192 182 178 175 169 159 152 157 171 177 175 174 178 184 186 185 182 176 170 171 177 183 184 182 179 179 182 185 187 189
43 39 33 32 34 34 32 31 32 30 22 18 23 27 25 26 28 27 28 33 37 67 161 161 128 94 73 63 59 54 49 38 24 22 184 181 176 167 156 141 128 127 143 158 166 171 178 183 182 179 176 174 173 175 175 177 179 179 178 180 183 185 186